Home   Weather   Orange   Past weeks

Flag for USA Past Weather in Orange, California, USA — Yesterday and Last 2 Weeks

Now
51 °F

Clear.


Feels Like: 51 °F
Forecast: 49 / 66 °F
Wind: No wind

Location: John Wayne Airport-Orange County Airport

Current Time: Dec 5, 2016 at 2:39:12 am

Latest Report: Dec 5, 2016 at 1:53 am


Visibility: 10 mi

Pressure: 29.96 "Hg

Humidity: 69%

Dew Point: 41 °F

Location of OrangeLocation

Past Weather in Orange — Graph

°F

Orange Temperature Yesterday

Maximum temperature yesterday: 68 °F (at 1:53 pm)
Minimum temperature yesterday: 45 °F (at 6:53 am)
Average temperature yesterday: 56 °F

High & Low Weather Summary for the Past Weeks

 TemperatureHumidityPressure
High79 °F (Nov 24, 12:53 pm)93% (Nov 20, 4:53 pm)30.16 "Hg (Nov 20, 4:53 pm)
Low44 °F (Nov 26, 4:53 am)11% (Dec 3, 1:53 pm)29.83 "Hg (Nov 28, 4:53 pm)
Average58 °F61%30.02 "Hg
* Reported Nov 20 12:53 am — Dec 5 12:53 am, Orange, Weather by CustomWeather, © 2016

Note: Actual official high and low records may vary slightly from our data, if they occured in-between our weather recording intervals... More about our weather records

Advertising

Orange Weather History for the Previous 24 Hours

Scroll right to see more
 ConditionsComfort  
Time TempWeatherWind HumidityBarometerVisibility
12:53 am
Mon, Dec 5
52 °FClear.No wind72%29.97 "Hg10 mi
11:53 pm
Sun, Dec 4
53 °FClear.No wind72%29.99 "Hg10 mi
10:53 pm54 °FClear.No wind69%29.98 "Hg10 mi
9:53 pm55 °FPassing clouds.No wind72%29.99 "Hg10 mi
8:53 pm57 °FPassing clouds.No wind74%29.99 "Hg10 mi
7:53 pm60 °FPassing clouds.3 mph65%29.98 "Hg10 mi
6:53 pm59 °FPassing clouds.No wind84%29.98 "Hg10 mi
5:53 pm59 °FPassing clouds.No wind78%29.98 "Hg10 mi
4:53 pm62 °FPassing clouds.3 mph67%29.98 "Hg10 mi
3:53 pm65 °FPassing clouds.5 mph54%29.98 "Hg10 mi
2:53 pm67 °FScattered clouds.6 mph45%29.99 "Hg10 mi
1:53 pm68 °FScattered clouds.5 mph39%29.99 "Hg10 mi
12:53 pm67 °FPassing clouds.7 mph45%30.01 "Hg10 mi
11:53 am67 °FPassing clouds.5 mph41%30.03 "Hg10 mi
10:53 am65 °FPassing clouds.No wind42%30.07 "Hg10 mi
9:53 am62 °FSunny.No wind48%30.08 "Hg10 mi
8:53 am56 °FSunny.No wind40%30.09 "Hg10 mi
7:53 am49 °FSunny.3 mph52%30.08 "Hg10 mi
6:53 am45 °FSunny.No wind56%30.07 "Hg10 mi
5:53 am46 °FClear.No wind54%30.06 "Hg10 mi
4:53 am47 °FClear.No wind54%30.05 "Hg10 mi
3:53 am46 °FClear.No wind56%30.05 "Hg10 mi
2:53 am48 °FClear.No wind50%30.06 "Hg10 mi
Weather by CustomWeather, © 2016

See weather overviewHow to use our weather pages